Richmond, KY

11:59 PM EDT on April 23, 2017 (GMT -0400)
Richmond

Weather History for KI39 - January, 2013

Change the Weather History Date:

Tuesday, January 15, 2013

  Actual Average (KLEX) Record (KLEX)
Temperature  
Mean Temperature 30 °F -  
Max Temperature 33 °F 38 °F 68 °F (1950)
Min Temperature 28 °F 23 °F -11 °F (1893)
Degree Days  
Heating Degree Days 34    
Moisture  
Dew Point 28 °F    
Average Humidity 90    
Maximum Humidity 100    
Minimum Humidity 81    
Precipitation  
Precipitation 0.00 in - - ()
Sea Level Pressure  
Sea Level Pressure 30.18 in    
Wind  
Wind Speed 7 mph (NE)    
Max Wind Speed 12 mph    
Max Gust Speed -    
Visibility 7 miles    
Events      
Averages and records for this station are not official NWS values.
T = Trace of Precipitation, MM = Missing Value Source: NWS Daily Summary

Daily Weather History Graph

Daily Weather History Graph

Search for Another Location

Airport or City:

Trip Planner

Search our weather history database for the weather conditions in past years. The results will help you decide how hot, cold, wet, or windy it might be!

Date:

Astronomy

Jan. 15, 2013 Rise Set
Actual Time 7:51 AM EST 5:42 PM EST
Civil Twilight 7:22 AM EST 6:11 PM EST
Nautical Twilight 6:50 AM EST 6:43 PM EST
Astronomical Twilight 6:18 AM EST 7:15 PM EST
Moon 10:02 AM EST (1/15) 10:25 PM EST (1/15)
Length of Visible Light 10h 49m
Length of Day
9h 51m
Waxing Crescent, 19% of the Moon is Illuminated
Jan 15
Waxing Crescent
Jan 18
First Quarter
Jan 26
Full
Feb 3
Last Quarter
Feb 10
New

Hourly Weather History & Observations

Time (EST) Temp. Windchill Dew Point Humidity Pressure Visibility Wind Dir Wind Speed Gust Speed Precip Events Conditions
12:15 AM 30.2 °F 23.4 °F 28.4 °F 93% 30.25 in 10.0 mi North 6.9 mph - N/A   Overcast
12:35 AM 30.2 °F 24.3 °F 26.6 °F 86% 30.24 in 10.0 mi North 5.8 mph - N/A   Overcast
12:55 AM 30.2 °F 25.4 °F 28.4 °F 93% 30.23 in 10.0 mi North 4.6 mph - N/A   Overcast
1:15 AM 30.2 °F 24.3 °F 28.4 °F 93% 30.24 in 10.0 mi NNE 5.8 mph - N/A   Overcast
1:35 AM 30.2 °F 25.4 °F 26.6 °F 86% 30.23 in 10.0 mi NNE 4.6 mph - N/A   Overcast
1:55 AM 30.2 °F 24.3 °F 26.6 °F 86% 30.24 in 10.0 mi NNE 5.8 mph - N/A   Overcast
2:35 AM 30.2 °F 24.3 °F 26.6 °F 86% 30.24 in 10.0 mi NNE 5.8 mph - N/A   Overcast
2:55 AM 30.2 °F 22.6 °F 26.6 °F 86% 30.24 in 10.0 mi NNE 8.1 mph - N/A   Overcast
3:15 AM 30.2 °F 22.6 °F 26.6 °F 86% 30.24 in 10.0 mi North 8.1 mph - N/A   Overcast
3:35 AM 30.2 °F 23.4 °F 26.6 °F 86% 30.25 in 10.0 mi North 6.9 mph - N/A   Overcast
4:15 AM 30.2 °F 23.4 °F 26.6 °F 86% 30.25 in 10.0 mi North 6.9 mph - N/A   Overcast
4:35 AM 30.2 °F 23.4 °F 26.6 °F 86% 30.25 in 10.0 mi North 6.9 mph - N/A   Overcast
4:55 AM 28.4 °F 20.4 °F 26.6 °F 93% 30.25 in 10.0 mi NNE 8.1 mph - N/A   Overcast
5:15 AM 28.4 °F 20.4 °F 26.6 °F 93% 30.25 in 10.0 mi NNE 8.1 mph - N/A   Overcast
5:35 AM 28.4 °F 19.7 °F 26.6 °F 93% 30.25 in 10.0 mi North 9.2 mph - N/A   Overcast
5:55 AM 28.4 °F 19.7 °F 26.6 °F 93% 30.26 in 10.0 mi NNE 9.2 mph - N/A   Overcast
6:15 AM 28.4 °F 19.7 °F 26.6 °F 93% 30.26 in 10.0 mi NNE 9.2 mph - N/A   Overcast
6:35 AM 28.4 °F 21.2 °F 26.6 °F 93% 30.27 in 10.0 mi NNE 6.9 mph - N/A   Overcast
6:55 AM 28.4 °F 22.2 °F 26.6 °F 93% 30.28 in 7.0 mi NNE 5.8 mph - N/A   Overcast
7:15 AM 28.4 °F 21.2 °F 26.6 °F 93% 30.28 in 7.0 mi NNE 6.9 mph - N/A   Overcast
7:35 AM 28.4 °F 19.7 °F 26.6 °F 93% 30.28 in 7.0 mi NE 9.2 mph - N/A   Overcast
7:55 AM 28.4 °F 19.7 °F 26.6 °F 93% 30.28 in 7.0 mi ENE 9.2 mph - N/A   Overcast
8:15 AM 28.4 °F 20.4 °F 26.6 °F 93% 30.28 in 7.0 mi NE 8.1 mph - N/A   Overcast
8:35 AM 30.2 °F 23.4 °F 26.6 °F 86% 30.29 in 7.0 mi ENE 6.9 mph - N/A   Overcast
8:55 AM 30.2 °F 21.9 °F 26.6 °F 86% 30.28 in 7.0 mi ENE 9.2 mph - N/A   Overcast
9:15 AM 30.2 °F 21.9 °F 26.6 °F 86% 30.28 in 7.0 mi ENE 9.2 mph - N/A   Overcast
9:35 AM 30.2 °F 22.6 °F 26.6 °F 86% 30.28 in 7.0 mi NE 8.1 mph - N/A   Overcast
9:55 AM 30.2 °F 21.9 °F 26.6 °F 86% 30.28 in 7.0 mi ENE 9.2 mph - N/A   Overcast
10:15 AM 30.2 °F 22.6 °F 26.6 °F 86% 30.27 in 7.0 mi ENE 8.1 mph - N/A   Overcast
10:35 AM 30.2 °F 21.3 °F 26.6 °F 86% 30.25 in 7.0 mi NE 10.4 mph - N/A   Overcast
10:55 AM 30.2 °F 23.4 °F 26.6 °F 86% 30.27 in 7.0 mi NE 6.9 mph - N/A   Overcast
11:15 AM 30.2 °F 22.6 °F 28.4 °F 93% 30.23 in 7.0 mi NE 8.1 mph - N/A   Overcast
11:35 AM 32.0 °F 23.6 °F 28.4 °F 87% 30.23 in 7.0 mi NNE 10.4 mph - N/A   Overcast
11:55 AM 32.0 °F 24.8 °F 28.4 °F 87% 30.23 in 7.0 mi NE 8.1 mph - N/A   Overcast
12:15 PM 32.0 °F 26.4 °F 28.4 °F 87% 30.22 in 10.0 mi NNE 5.8 mph - N/A   Overcast
12:35 PM 32.0 °F 23.6 °F 28.4 °F 87% 30.18 in 10.0 mi ENE 10.4 mph - N/A   Overcast
12:55 PM 32.0 °F 24.2 °F 28.4 °F 87% 30.18 in 10.0 mi ENE 9.2 mph - N/A   Overcast
1:15 PM 32.0 °F 24.2 °F 28.4 °F 87% 30.16 in 10.0 mi NE 9.2 mph - N/A   Overcast
1:35 PM 32.0 °F 25.6 °F 28.4 °F 87% 30.16 in 10.0 mi NE 6.9 mph - N/A   Overcast
1:55 PM 32.0 °F 23.0 °F 28.4 °F 87% 30.12 in 10.0 mi NE 11.5 mph - N/A   Overcast
2:15 PM 33.8 °F 28.6 °F 28.4 °F 81% 30.13 in 10.0 mi NE 5.8 mph - N/A   Overcast
2:35 PM 33.8 °F 26.4 °F 28.4 °F 81% 30.13 in 10.0 mi NE 9.2 mph - N/A   Overcast
2:55 PM 33.8 °F 26.4 °F 28.4 °F 81% 30.09 in 10.0 mi NE 9.2 mph - N/A   Overcast
3:15 PM 33.8 °F 27.7 °F 28.4 °F 81% 30.11 in 10.0 mi North 6.9 mph - N/A   Overcast
3:35 PM 33.8 °F 26.4 °F 28.4 °F 81% 30.11 in 10.0 mi NE 9.2 mph - N/A   Overcast
3:55 PM 33.8 °F 27.7 °F 28.4 °F 81% 30.13 in 7.0 mi NNE 6.9 mph - N/A   Overcast
4:15 PM 32.0 °F 26.4 °F 30.2 °F 93% 30.13 in 4.0 mi North 5.8 mph - N/A   Overcast
4:35 PM 32.0 °F 26.4 °F 30.2 °F 93% 30.13 in 4.0 mi NNE 5.8 mph - N/A   Overcast
4:55 PM 32.0 °F 26.4 °F 30.2 °F 93% 30.14 in 3.0 mi NNE 5.8 mph - N/A   Overcast
5:15 PM 32.0 °F 24.8 °F 30.2 °F 93% 30.13 in 3.0 mi North 8.1 mph - N/A   Overcast
5:35 PM 32.0 °F 25.6 °F 30.2 °F 93% 30.14 in 3.0 mi North 6.9 mph - N/A   Overcast
6:15 PM 32.0 °F 26.4 °F 30.2 °F 93% 30.15 in 3.0 mi NNE 5.8 mph - N/A   Overcast
6:35 PM 32.0 °F 26.4 °F 30.2 °F 93% 30.13 in 3.0 mi NE 5.8 mph - N/A   Overcast
6:55 PM 32.0 °F 25.6 °F 30.2 °F 93% 30.12 in 4.0 mi NE 6.9 mph - N/A   Overcast
7:15 PM 32.0 °F 24.8 °F 30.2 °F 93% 30.13 in 3.0 mi NE 8.1 mph - N/A   Overcast
7:35 PM 32.0 °F 23.6 °F 30.2 °F 93% 30.09 in 4.0 mi NE 10.4 mph - N/A   Overcast
7:55 PM 32.0 °F 25.6 °F 30.2 °F 93% 30.11 in 4.0 mi NE 6.9 mph - N/A   Overcast
8:15 PM 32.0 °F 27.5 °F 30.2 °F 93% 30.10 in 3.0 mi NNE 4.6 mph - N/A   Overcast
8:35 PM 32.0 °F 26.4 °F 30.2 °F 93% 30.09 in 3.0 mi NNE 5.8 mph - N/A   Overcast
8:55 PM 32.0 °F 26.4 °F 30.2 °F 93% 30.11 in 3.0 mi NNE 5.8 mph - N/A   Overcast
9:15 PM 32.0 °F 24.2 °F 30.2 °F 93% 30.05 in 4.0 mi ENE 9.2 mph - N/A   Overcast
9:35 PM 32.0 °F 27.5 °F 30.2 °F 93% 30.06 in 7.0 mi ENE 4.6 mph - N/A   Overcast
9:55 PM 32.0 °F 27.5 °F 30.2 °F 93% 30.07 in 5.0 mi ENE 4.6 mph - N/A   Overcast
10:15 PM 32.0 °F - 30.2 °F 93% 30.08 in 5.0 mi Calm Calm - N/A   Overcast
10:35 PM 32.0 °F 26.4 °F 30.2 °F 93% 30.05 in 7.0 mi East 5.8 mph - N/A   Overcast
10:55 PM 32.0 °F - 30.2 °F 93% 30.05 in 5.0 mi Calm Calm - N/A   Overcast
11:15 PM 32.0 °F 27.5 °F 30.2 °F 93% 30.03 in 7.0 mi East 4.6 mph - N/A   Overcast
11:35 PM 32.0 °F 25.6 °F 30.2 °F 93% 29.96 in 4.0 mi East 6.9 mph - N/A   Overcast
11:55 PM 32.0 °F - 32.0 °F 100% 30.00 in 10.0 mi Calm Calm - N/A   Overcast